FW7071 Weather Reports


Display with metric or nautical units.
time (UTC)temp
F
wind
direction
speed
MPH
gust
MPH
rain 1hr
in
rain 24hr
in
rain mn
in
humidity
%
barometer
mb
20260903033405 70 76 0.0 0.0 0.00 0.07 0.07 99 1020.6
20260903032905 70 132 0.0 1.0 0.00 0.07 0.07 99 1020.3
20260903032401 70 159 0.0 0.0 0.00 0.07 0.07 99 1020.5
20260903031856 70 131 1.0 1.0 0.00 0.07 0.07 99 1020.1
20260903031355 70 131 0.0 0.0 0.00 0.07 0.07 99 1020.1
20260903030851 70 127 0.0 0.0 0.00 0.07 0.07 99 1019.9
20260903030347 70 164 0.0 0.0 0.00 0.07 0.07 99 1020.2
20260903025843 70 249 0.0 0.0 0.00 0.07 0.07 99 1020.1
20260903025338 70 297 2.0 2.0 0.00 0.07 0.07 99 1020.2
20260903024838 70 187 0.0 1.0 0.00 0.07 0.07 99 1019.9
20260903024332 70 152 0.0 0.0 0.00 0.07 0.07 99 1020.1
20260903023827 70 142 0.0 0.0 0.00 0.07 0.07 99 1019.7
20260903023323 70 141 0.0 0.0 0.00 0.07 0.07 99 1020.2
20260903022818 70 146 0.0 0.0 0.00 0.07 0.07 99 1020.1
20260903022311 70 91 0.0 1.0 0.00 0.07 0.07 99 1020.3
20260903021811 70 160 0.0 0.0 0.00 0.07 0.07 99 1020.3
20260903021307 70 119 0.0 0.0 0.00 0.07 0.07 99 1020.2
20260903020806 70 126 0.0 0.0 0.00 0.07 0.07 99 1020.1
20260903020301 70 143 0.0 0.0 0.00 0.07 0.07 99 1020.0
20260903015756 70 142 0.0 0.0 0.00 0.07 0.07 99 1019.9
20260903015252 70 153 0.0 0.0 0.00 0.07 0.07 99 1020.0
20260903014747 70 173 0.0 0.0 0.00 0.07 0.07 99 1019.9
20260903014246 70 141 0.0 0.0 0.00 0.07 0.07 99 1020.0
20260903013742 70 124 0.0 1.0 0.00 0.07 0.07 99 1019.8
20260903013241 70 164 0.0 0.0 0.00 0.07 0.07 99 1019.9
20260903012739 70 132 0.0 0.0 0.00 0.07 0.07 99 1020.0
20260903012234 70 102 0.0 1.0 0.00 0.07 0.07 99 1019.8
20260903011728 70 115 0.0 0.0 0.00 0.07 0.07 99 1019.8
20260903011222 70 113 1.0 1.0 0.00 0.07 0.07 99 1020.0
20260903010717 70 140 0.0 0.0 0.00 0.07 0.07 99 1019.9
20260903010217 70 128 1.0 1.0 0.00 0.07 0.07 99 1020.0
20260903005716 70 121 0.0 0.0 0.00 0.07 0.07 99 1020.4
20260903005211 70 112 0.0 1.0 0.00 0.07 0.07 99 1020.3
20260903004708 70 71 0.0 0.0 0.00 0.07 0.07 99 1020.3
20260903004203 70 93 1.0 1.0 0.00 0.07 0.07 99 1020.3
20260903003658 70 88 1.0 1.0 0.00 0.07 0.07 99 1020.1
20260903003153 70 120 0.0 0.0 0.00 0.07 0.07 99 1020.2
20260903002648 70 121 0.0 0.0 0.00 0.07 0.07 99 1020.1
20260903002142 70 103 0.0 1.0 0.00 0.07 0.07 99 1019.9
20260903001637 70 32 1.0 2.0 0.00 0.07 0.07 99 1019.9
20260903001136 70 58 1.0 1.0 0.00 0.07 0.07 99 1019.9
20260903000627 70 109 1.0 1.0 0.00 0.07 0.07 99 1019.5
20260903000126 70 98 1.0 1.0 0.00 0.07 0.07 99 1019.6
20260902235625 70 131 0.0 0.0 0.00 0.07 0.07 99 1019.8
20260902235120 70 117 1.0 1.0 0.00 0.07 0.07 99 1019.7
20260902234614 70 50 2.0 2.0 0.00 0.07 0.07 99 1019.7
20260902234113 70 89 2.0 3.0 0.00 0.07 0.07 99 1019.3
20260902233608 70 113 1.0 2.0 0.00 0.07 0.07 99 1019.5
20260902233102 70 126 0.0 0.0 0.00 0.07 0.07 99 1019.7
20260902232602 70 65 2.0 2.0 0.00 0.07 0.07 99 1019.7
20260902232056 70 87 1.0 2.0 0.00 0.07 0.07 99 1019.6
20260902231556 70 80 1.0 1.0 0.00 0.07 0.07 99 1019.7
20260902231051 70 74 1.0 1.0 0.00 0.07 0.07 99 1019.6
20260902230551 70 138 0.0 0.0 0.00 0.07 0.07 99 1020.0
20260902230050 70 26 2.0 2.0 0.00 0.07 0.07 99 1019.7
20260902225545 71 96 5.0 7.0 0.00 0.07 0.07 99 1019.7
20260902225044 71 123 1.0 1.0 0.00 0.07 0.07 99 1019.7
20260902224543 71 107 2.0 3.0 0.00 0.07 0.07 99 1019.8
20260902224039 71 107 2.0 3.0 0.00 0.07 0.07 99 1019.8
20260902223536 71 75 1.0 1.0 0.00 0.07 0.07 99 1020.0
20260902223034 71 109 0.0 1.0 0.00 0.07 0.07 99 1020.1
20260902222533 71 86 1.0 2.0 0.00 0.07 0.07 99 1020.2
20260902222032 71 86 1.0 2.0 0.00 0.07 0.07 99 1020.3
20260902221527 71 56 1.0 2.0 0.00 0.07 0.07 99 1020.4
20260902221022 71 68 0.0 1.0 0.00 0.07 0.07 99 1019.8
20260902220517 71 104 0.0 0.0 0.00 0.07 0.07 99 1020.1
20260902220012 71 89 1.0 1.0 0.00 0.07 0.07 99 1020.2
20260902215508 71 103 0.0 0.0 0.00 0.07 0.07 99 1020.7
20260902215003 71 267 0.0 0.0 0.00 0.07 0.07 99 1020.7
20260902214503 71 114 1.0 1.0 0.00 0.07 0.07 99 1020.4
20260902214002 71 108 0.0 0.0 0.00 0.07 0.07 99 1020.5
20260902213458 71 93 1.0 1.0 0.00 0.07 0.07 99 1020.7
20260902212956 71 114 0.0 1.0 0.00 0.07 0.07 99 1020.5
20260902212453 71 121 1.0 1.0 0.00 0.07 0.07 99 1020.2
20260902211949 71 61 2.0 2.0 0.00 0.07 0.07 99 1020.2
20260902211444 71 84 3.0 5.0 0.00 0.07 0.07 99 1020.2
20260902210939 71 100 3.0 3.0 0.00 0.07 0.07 99 1020.1
20260902210434 71 36 3.0 3.0 0.00 0.07 0.07 99 1019.9
20260902205932 71 70 1.0 1.0 0.00 0.07 0.07 99 1019.9
20260902205428 71 124 1.0 1.0 0.00 0.07 0.07 99 1019.9
20260902204923 71 107 2.0 3.0 0.00 0.07 0.07 99 1019.5
20260902204423 71 114 1.0 1.0 0.00 0.07 0.07 99 1019.8
20260902203919 71 94 1.0 1.0 0.00 0.07 0.07 99 1020.0
20260902203414 71 101 0.0 1.0 0.00 0.07 0.07 99 1019.9
20260902202913 71 108 1.0 1.0 0.00 0.07 0.07 99 1019.8
20260902202409 71 77 1.0 1.0 0.00 0.07 0.07 99 1020.1
20260902201906 71 27 3.0 3.0 0.00 0.07 0.07 99 1020.0
20260902201405 71 50 1.0 1.0 0.00 0.07 0.07 99 1020.3
20260902200900 71 112 1.0 1.0 0.00 0.07 0.07 99 1020.4
20260902200355 71 93 0.0 0.0 0.00 0.07 0.07 99 1020.6
20260902195850 71 128 1.0 1.0 0.00 0.07 0.07 99 1020.3
20260902195349 71 128 0.0 1.0 0.00 0.07 0.07 99 1020.3
20260902194845 71 102 0.0 0.0 0.00 0.07 0.07 99 1020.4
20260902194339 71 133 2.0 2.0 0.00 0.07 0.07 99 1020.5
20260902193834 71 93 2.0 3.0 0.00 0.07 0.07 99 1020.3
20260902193330 71 76 2.0 2.0 0.00 0.07 0.07 99 1020.3
20260902192829 71 86 1.0 2.0 0.00 0.07 0.07 99 1020.1
20260902192327 71 86 2.0 2.0 0.00 0.07 0.07 99 1020.5
20260902191822 71 137 0.0 1.0 0.00 0.07 0.07 99 1020.3
20260902191317 71 88 2.0 2.0 0.00 0.07 0.07 99 1020.3
20260902190813 71 73 2.0 2.0 0.00 0.07 0.07 99 1020.4
20260902190312 70 66 2.0 3.0 0.00 0.07 0.07 99 1020.3
20260902185808 71 89 0.0 1.0 0.00 0.07 0.07 99 1020.5
20260902185306 70 9 1.0 2.0 0.00 0.07 0.07 99 1020.5
20260902184759 70 129 1.0 1.0 0.00 0.07 0.07 99 1020.7
20260902184254 71 118 1.0 1.0 0.00 0.07 0.07 99 1020.8
20260902183750 71 71 1.0 2.0 0.00 0.07 0.07 99 1021.1
20260902183246 71 68 1.0 1.0 0.00 0.07 0.07 99 1021.0
20260902182742 71 106 0.0 0.0 0.00 0.07 0.07 99 1021.3
20260902182238 71 162 0.0 0.0 0.00 0.07 0.07 99 1021.5
20260902181735 0 0.0 0.0 0.00 0.00 0.00 1021.2
20260902181234 0 0.0 0.0 0.00 0.00 0.00 1021.4
20260902180729 71 227 0.0 0.0 0.00 0.07 0.07 99 1021.5
20260902180224 71 227 0.0 0.0 0.00 0.07 0.07 99 1021.5
20260902175719 71 227 0.0 0.0 0.00 0.07 0.07 99 1021.5
20260902175215 71 244 0.0 0.0 0.07 0.07 0.07 99 1021.8
20260902174711 71 245 0.0 0.0 0.00 0.06 0.06 99 1022.1
20260902174207 71 266 0.0 1.0 0.05 0.06 0.06 99 1021.6
20260902173702 71 257 1.0 1.0 0.05 0.06 0.06 99 1021.9
20260902173157 71 281 1.0 1.0 0.07 0.05 0.05 99 1021.7
20260902172657 70 176 0.0 0.0 0.07 0.05 0.05 99 1021.6
20260902172156 70 142 0.0 0.0 0.05 0.04 0.04 99 1021.5
20260902171651 70 156 0.0 0.0 0.12 0.04 0.04 99 1021.2
20260902171147 70 133 0.0 0.0 0.07 0.03 0.03 99 1021.2
20260902170643 70 138 0.0 1.0 0.00 0.02 0.02 99 1021.4
20260902170138 70 141 0.0 0.0 0.00 0.02 0.02 99 1022.0
20260902165633 71 131 0.0 0.0 0.00 0.02 0.02 99 1022.3
20260902165132 71 163 0.0 0.0 0.00 0.02 0.02 99 1022.5
20260902164628 70 104 0.0 0.0 0.00 0.02 0.02 99 1022.2
20260902164127 70 150 0.0 0.0 0.00 0.02 0.02 99 1022.6
20260902163622 70 38 1.0 2.0 0.00 0.02 0.02 99 1022.3
20260902163121 70 133 0.0 0.0 0.00 0.02 0.02 99 1022.0
20260902162620 70 153 0.0 0.0 0.00 0.02 0.02 99 1021.8
20260902162115 70 141 2.0 2.0 0.00 0.02 0.02 99 1022.1
20260902161610 70 145 0.0 0.0 0.00 0.02 0.02 99 1022.2
20260902161106 70 127 1.0 1.0 0.00 0.02 0.02 99 1022.4
20260902160602 70 148 0.0 0.0 0.00 0.02 0.02 99 1022.3
20260902160057 70 66 3.0 3.0 0.00 0.02 0.02 99 1022.0
20260902155555 70 137 0.0 0.0 0.00 0.02 0.02 99 1022.2
20260902155054 70 22 0.0 0.0 0.00 0.02 0.02 99 1022.0
20260902154549 70 136 1.0 2.0 0.00 0.02 0.02 99 1021.8
20260902154044 70 138 0.0 1.0 0.00 0.02 0.02 99 1021.8
20260902153543 70 141 0.0 0.0 0.00 0.02 0.02 99 1021.7
20260902153039 69 136 0.0 1.0 0.00 0.02 0.02 99 1021.8
20260902152535 70 118 0.0 1.0 0.00 0.02 0.02 99 1021.8
20260902152030 70 140 0.0 0.0 0.00 0.02 0.02 99 1021.5
20260902151526 70 84 2.0 2.0 0.00 0.02 0.02 99 1021.6
20260902151025 70 163 0.0 0.0 0.00 0.02 0.02 99 1021.6
20260902150521 70 134 1.0 1.0 0.00 0.02 0.02 99 1021.6
20260902150016 70 138 0.0 0.0 0.00 0.02 0.02 99 1021.8
20260902145511 69 152 0.0 1.0 0.00 0.02 0.02 99 1022.0
20260902145011 69 106 2.0 2.0 0.00 0.02 0.02 99 1021.9
20260902144508 69 64 1.0 1.0 0.00 0.02 0.02 99 1022.1
20260902144002 69 353 0.0 1.0 0.00 0.02 0.02 99 1021.9
20260902143457 69 116 1.0 2.0 0.00 0.02 0.02 99 1021.9
20260902142953 69 132 0.0 0.0 0.00 0.02 0.02 99 1021.7
20260902142448 69 118 0.0 1.0 0.00 0.02 0.02 99 1021.9
20260902141943 69 147 0.0 0.0 0.00 0.02 0.02 99 1022.1
20260902141438 69 107 0.0 0.0 0.00 0.02 0.02 99 1022.1
20260902140938 69 62 0.0 1.0 0.00 0.02 0.02 99 1021.9
20260902140433 69 32 2.0 2.0 0.00 0.02 0.02 99 1022.0
20260902135933 69 86 1.0 1.0 0.00 0.02 0.02 99 1021.6
20260902135429 69 134 4.0 6.0 0.00 0.02 0.02 99 1021.5
20260902134927 69 64 1.0 3.0 0.00 0.02 0.02 99 1021.7
20260902134423 69 83 1.0 2.0 0.00 0.02 0.02 99 1021.4
20260902133918 69 90 1.0 1.0 0.00 0.02 0.02 99 1021.6
20260902133413 69 63 3.0 5.0 0.00 0.02 0.02 99 1021.6
20260902132908 69 122 2.0 2.0 0.00 0.02 0.02 99 1021.7
20260902132403 69 181 1.0 2.0 0.00 0.02 0.02 99 1021.7
20260902131858 69 73 3.0 3.0 0.00 0.02 0.02 99 1021.3
20260902131355 69 101 1.0 1.0 0.00 0.02 0.02 99 1021.7
20260902130854 69 73 1.0 1.0 0.00 0.02 0.02 99 1021.2
20260902130350 69 86 1.0 2.0 0.00 0.02 0.02 99 1021.1
20260902125845 69 90 1.0 2.0 0.00 0.02 0.02 99 1021.2
20260902125341 69 134 1.0 1.0 0.00 0.02 0.02 99 1021.1
20260902124837 69 93 3.0 3.0 0.00 0.02 0.02 99 1021.1
20260902124333 69 101 1.0 1.0 0.00 0.02 0.02 99 1021.3
20260902123827 69 95 2.0 2.0 0.00 0.02 0.02 99 1021.1
20260902123324 68 106 3.0 3.0 0.00 0.02 0.02 99 1021.2
20260902122822 69 62 1.0 1.0 0.00 0.02 0.02 99 1021.0
20260902122318 68 141 0.0 1.0 0.00 0.02 0.02 99 1021.0
20260902121818 68 54 1.0 2.0 0.00 0.02 0.02 99 1021.1
20260902121313 68 126 1.0 1.0 0.00 0.02 0.02 99 1020.9
20260902120808 68 136 1.0 1.0 0.00 0.02 0.02 99 1021.1
20260902120305 68 68 1.0 2.0 0.00 0.02 0.02 99 1021.1
20260902115759 68 38 2.0 3.0 0.00 0.02 0.02 99 1021.0
20260902115255 68 133 2.0 2.0 0.00 0.02 0.02 99 1020.9
20260902114746 68 127 0.0 1.0 0.00 0.02 0.02 99 1021.0
20260902114242 68 63 2.0 2.0 0.00 0.02 0.02 99 1020.8
20260902113742 68 71 1.0 1.0 0.00 0.02 0.02 99 1020.6
20260902113237 68 129 1.0 1.0 0.00 0.02 0.02 99 1020.6
20260902112736 68 135 1.0 2.0 0.00 0.02 0.02 99 1020.6
20260902112234 68 90 3.0 3.0 0.05 0.02 0.02 99 1020.8
20260902111729 68 90 3.0 3.0 0.05 0.02 0.02 99 1020.6
20260902111225 69 152 2.0 3.0 0.00 0.01 0.01 99 1020.8
20260902110720 69 152 2.0 3.0 0.00 0.01 0.01 99 1020.7
20260902110216 69 152 2.0 3.0 0.00 0.01 0.01 99 1020.8
20260902105715 69 107 0.0 1.0 0.00 0.01 0.01 99 1020.8
20260902105211 69 107 0.0 1.0 0.00 0.01 0.01 99 1020.8
20260902104706 69 101 0.0 1.0 0.00 0.01 0.01 99 1020.9
20260902104202 69 153 0.0 0.0 0.00 0.01 0.01 99 1020.6
20260902103701 69 89 0.0 1.0 0.00 0.01 0.01 99 1020.9
20260902103156 69 126 1.0 1.0 0.00 0.01 0.01 99 1020.4
20260902102652 69 115 2.0 2.0 0.00 0.01 0.01 99 1020.5
20260902102150 69 85 1.0 1.0 0.00 0.01 0.01 99 1020.5
20260902101645 69 108 1.0 1.0 0.00 0.01 0.01 99 1020.4
20260902101144 69 123 1.0 1.0 0.00 0.01 0.01 99 1020.5
20260902100639 69 89 1.0 1.0 0.00 0.01 0.01 99 1020.3
20260902100134 69 88 1.0 2.0 0.00 0.01 0.01 99 1020.3
20260902095632 69 128 1.0 2.0 0.00 0.01 0.01 99 1020.2
20260902095127 69 108 2.0 2.0 0.00 0.01 0.01 99 1020.4
20260902094622 69 93 1.0 1.0 0.00 0.01 0.01 99 1020.3
20260902094118 69 115 1.0 2.0 0.00 0.01 0.01 99 1020.3
20260902093617 69 96 1.0 1.0 0.00 0.01 0.01 99 1020.4
20260902093113 69 65 0.0 1.0 0.00 0.01 0.01 99 1020.3
20260902092612 69 24 3.0 3.0 0.00 0.01 0.01 99 1020.4
20260902092108 70 71 2.0 2.0 0.00 0.01 0.01 99 1020.4
20260902091603 70 80 1.0 1.0 0.00 0.01 0.01 99 1020.2
20260902091059 70 86 1.0 1.0 0.00 0.01 0.01 99 1020.1
20260902090555 70 118 1.0 1.0 0.07 0.01 0.01 99 1020.2
20260902090053 70 148 0.0 0.0 0.07 0.01 0.01 99 1019.9
20260902085548 70 144 0.0 0.0 0.00 0.00 0.00 99 1020.1
20260902085043 70 92 3.0 3.0 0.00 0.00 0.00 99 1019.7
20260902084539 70 155 1.0 1.0 0.00 0.00 0.00 99 1020.1
20260902084035 70 70 2.0 2.0 0.00 0.00 0.00 99 1019.9
20260902083525 70 156 0.0 1.0 0.00 0.00 0.00 99 1019.8
20260902083025 70 98 0.0 1.0 0.00 0.00 0.00 99 1019.9
20260902082520 70 85 2.0 2.0 0.00 0.00 0.00 99 1019.6
20260902082016 71 102 0.0 1.0 0.00 0.00 0.00 99 1019.6
20260902081513 71 66 1.0 2.0 0.00 0.00 0.00 99 1019.4
20260902081012 71 81 3.0 3.0 0.00 0.00 0.00 99 1019.4
20260902080508 71 156 0.0 1.0 0.00 0.00 0.00 99 1019.2
20260902080003 71 108 2.0 3.0 0.00 0.00 0.00 99 1019.3
20260902075459 71 101 1.0 2.0 0.00 0.00 0.00 99 1019.3
20260902074954 71 106 0.0 1.0 0.00 0.00 0.00 99 1019.2
20260902074449 71 93 1.0 2.0 0.00 0.00 0.00 99 1019.5
20260902073950 71 164 0.0 0.0 0.00 0.00 0.00 99 1019.4
20260902073446 71 174 0.0 0.0 0.00 0.00 0.00 99 1019.3
20260902072942 71 148 0.0 0.0 0.00 0.00 0.00 99 1019.2
20260902072438 71 117 0.0 0.0 0.00 0.00 0.00 99 1019.1
20260902071934 70 96 0.0 0.0 0.00 0.00 0.00 99 1019.1
20260902071433 70 99 0.0 0.0 0.00 0.00 0.00 99 1019.1
20260902070930 70 118 0.0 1.0 0.00 0.00 0.00 99 1019.2
20260902070425 70 87 0.0 0.0 0.00 0.00 0.00 99 1019.2
20260902065924 70 85 0.0 0.0 0.00 0.00 0.00 99 1019.0
20260902065419 70 83 0.0 0.0 0.00 0.00 0.00 99 1019.0
20260902064914 70 90 1.0 1.0 0.00 0.00 0.00 99 1019.2
20260902064410 70 152 0.0 0.0 0.00 0.00 0.00 99 1019.3
20260902063906 70 86 0.0 1.0 0.00 0.00 0.00 99 1019.3
20260902063405 70 187 0.0 0.0 0.00 0.00 0.00 99 1019.3
20260902062901 70 138 0.0 1.0 0.00 0.00 0.00 99 1019.0
20260902062359 69 162 0.0 0.0 0.00 0.00 0.00 99 1018.9
20260902061859 70 167 0.0 0.0 0.00 0.00 0.00 99 1019.2
20260902061354 70 201 0.0 0.0 0.00 0.00 0.00 99 1019.2
20260902060851 70 123 0.0 0.0 0.00 0.00 0.00 99 1019.0
20260902060346 70 144 0.0 0.0 0.00 0.00 0.00 99 1019.2
20260902055842 69 186 0.0 0.0 0.00 0.00 0.00 99 1019.1
20260902055338 69 186 0.0 0.0 0.00 0.00 0.00 99 1019.1
20260902054833 70 186 0.0 0.0 0.00 0.00 0.00 99 1019.1
20260902054329 70 198 0.0 0.0 0.00 0.00 0.00 99 1019.1
20260902053823 70 199 0.0 0.0 0.00 0.00 0.00 99 1019.0
20260902053318 70 219 0.0 0.0 0.00 0.00 0.00 99 1019.3
20260902052818 70 194 0.0 0.0 0.00 0.00 0.00 99 1018.9
20260902052313 70 182 0.0 0.0 0.00 0.00 0.00 99 1018.9
20260902051808 70 182 0.0 0.0 0.00 0.00 0.00 99 1019.0
20260902051307 70 145 0.0 0.0 0.00 0.00 0.00 99 1018.8
20260902050802 70 157 0.0 0.0 0.00 0.00 0.00 99 1019.2
20260902050257 71 174 0.0 0.0 0.00 0.00 0.00 99 1019.2
20260902045757 71 171 0.0 0.0 0.00 0.00 0.00 99 1019.0
20260902045253 71 181 0.0 0.0 0.00 0.00 0.00 99 1019.5
20260902044749 71 181 0.0 0.0 0.00 0.00 0.00 99 1019.4
20260902044244 71 158 0.0 0.0 0.00 0.00 0.00 99 1019.6
20260902043739 71 169 0.0 0.0 0.00 0.00 0.00 99 1020.0
20260902043235 71 117 0.0 0.0 0.00 0.00 0.00 99 1019.6
20260902042733 71 117 0.0 0.0 0.00 0.00 0.00 99 1019.7
20260902042228 71 117 0.0 0.0 0.00 0.00 0.00 99 1019.5
20260902041724 71 140 0.0 0.0 0.00 0.00 0.00 99 1019.5
20260902041218 71 222 0.0 0.0 0.00 0.00 0.00 99 1019.4
20260902040718 71 174 0.0 0.0 0.00 0.00 0.00 99 1019.3
20260902040213 71 285 1.0 1.0 0.00 0.00 0.00 99 1019.3
20260902035712 71 169 0.0 0.0 0.00 0.13 0.13 99 1019.2
20260902035208 71 284 1.0 1.0 0.00 0.13 0.13 99 1019.0
20260902034707 71 241 0.0 0.0 0.00 0.13 0.13 99 1019.1
20260902034206 71 191 0.0 0.0 0.00 0.13 0.13 99 1018.6